Weather History for KJKL - February, 2014

Change the Weather History Date:

Thursday, February 27, 2014

  Actual Average Record
Temperature  
Mean Temperature 27 °F 42 °F  
Max Temperature 37 °F 51 °F 75 °F (1996)
Min Temperature 16 °F 33 °F 11 °F (1994)
Degree Days  
Heating Degree Days 38 23  
Month to date heating degree days 780 711  
Since 1 July heating degree days 3564 3277  
Cooling Degree Days 0 0  
Month to date cooling degree days 0 0  
Year to date cooling degree days 0 0  
Moisture  
Dew Point 5 °F    
Average Humidity 44    
Maximum Humidity 59    
Minimum Humidity 29    
Precipitation  
Precipitation 0.00 in 0.14 in 0.90 in (1987)
Month to date precipitation 4.47 3.62  
Year to date precipitation 7.62 7.23  
Snow  
Snow 0.00 in 0.20 in 2.00 in (2008)
Month to date snowfall 8.7 6.8  
Since 1 July snowfall 27.0 19.4  
Snow Depth 0.00 in    
Sea Level Pressure  
Sea Level Pressure 29.98 in    
Wind  
Wind Speed 7 mph (West)    
Max Wind Speed 16 mph    
Max Gust Speed 25 mph    
Visibility 10 miles    
Events      
T = Trace of Precipitation, MM = Missing Value Source: NWS Daily Summary

Daily Weather History Graph

Daily Weather History Graph

Search for Another Location

Airport or City:

Trip Planner

Search our weather history database for the weather conditions in past years. The results will help you decide how hot, cold, wet, or windy it might be!

Date:

Astronomy

Feb. 27, 2014 Rise Set
Actual Time 7:07 AM EST 6:25 PM EST
Civil Twilight 6:41 AM EST 6:51 PM EST
Nautical Twilight 6:10 AM EST 7:21 PM EST
Astronomical Twilight 5:40 AM EST 7:52 PM EST
Moon 5:37 AM EST (2/27) 4:50 PM EST (2/27)
Length of Visible Light 12h 10m
Length of Day
11h 17m
Waning Crescent, 4% of the Moon is Illuminated
Feb 27
Waning Crescent
Mar 1
New
Mar 8
First Quarter
Mar 16
Full
Mar 23
Last Quarter

Hourly Weather History & Observations

Time (EST) Temp. Windchill Dew Point Humidity Pressure Visibility Wind Dir Wind Speed Gust Speed Precip Events Conditions
12:53 AM 18.0 °F 9.8 °F 5.0 °F 57% 29.93 in 10.0 mi SW 5.8 mph - N/A   Clear
1:53 AM 18.0 °F 9.8 °F 5.0 °F 57% 29.92 in 10.0 mi Variable 5.8 mph - N/A   Clear
2:53 AM 17.1 °F 8.7 °F 3.9 °F 56% 29.93 in 10.0 mi Variable 5.8 mph - N/A   Clear
3:53 AM 17.1 °F 7.6 °F 3.9 °F 56% 29.91 in 10.0 mi Variable 6.9 mph - N/A   Clear
4:53 AM 16.0 °F 7.4 °F 3.9 °F 59% 29.91 in 10.0 mi Variable 5.8 mph - N/A   Clear
5:53 AM 17.1 °F 8.7 °F 3.0 °F 54% 29.90 in 10.0 mi SW 5.8 mph - N/A   Clear
6:53 AM 17.1 °F 6.6 °F 3.0 °F 54% 29.91 in 10.0 mi SW 8.1 mph - N/A   Clear
7:53 AM 19.0 °F 8.2 °F 3.9 °F 52% 29.93 in 10.0 mi SW 9.2 mph 19.6 mph N/A   Clear
8:53 AM 21.9 °F 11.0 °F 6.1 °F 51% 29.94 in 10.0 mi WSW 10.4 mph 18.4 mph N/A   Clear
9:53 AM 26.1 °F 16.8 °F 8.1 °F 47% 29.95 in 10.0 mi WSW 9.2 mph 19.6 mph N/A   Clear
10:53 AM 30.0 °F 25.2 °F 10.0 °F 43% 29.96 in 10.0 mi Variable 4.6 mph - N/A   Partly Cloudy
11:53 AM 32.0 °F 22.1 °F 7.0 °F 35% 29.96 in 10.0 mi WSW 13.8 mph 24.2 mph N/A   Clear
12:53 PM 33.1 °F 24.9 °F 7.0 °F 34% 29.96 in 10.0 mi WNW 10.4 mph 19.6 mph N/A   Clear
1:53 PM 37.0 °F - 9.0 °F 31% 29.96 in 10.0 mi North - - N/A   Clear
2:53 PM 34.0 °F 25.5 °F 7.0 °F 32% 29.97 in 10.0 mi WNW 11.5 mph 21.9 mph N/A   Clear
3:53 PM 37.0 °F 31.6 °F 8.1 °F 30% 29.98 in 10.0 mi Variable 6.9 mph - N/A   Clear
4:53 PM 34.0 °F 26.6 °F 6.1 °F 31% 29.99 in 10.0 mi NW 9.2 mph - N/A   Clear
5:53 PM 32.0 °F 25.6 °F 5.0 °F 32% 30.01 in 10.0 mi West 6.9 mph - N/A   Clear
6:53 PM 28.9 °F - 3.9 °F 35% 30.03 in 10.0 mi Calm Calm - N/A   Clear
7:53 PM 27.0 °F 20.5 °F 3.9 °F 37% 30.05 in 10.0 mi North 5.8 mph - N/A   Clear
8:53 PM 24.1 °F 18.2 °F 1.9 °F 38% 30.06 in 10.0 mi Variable 4.6 mph - N/A   Clear
9:53 PM 23.0 °F 17.0 °F -2.0 °F 34% 30.09 in 10.0 mi Variable 4.6 mph - N/A   Clear
10:53 PM 21.0 °F 14.6 °F -0.0 °F 40% 30.11 in 10.0 mi NE 4.6 mph - N/A   Clear
11:53 PM 19.9 °F 13.4 °F -0.0 °F 42% 30.12 in 10.0 mi NE 4.6 mph - N/A   Clear